Regional Weather Roundup
Issued by NWS

Home | Current Version | Previous Version | Text Only | Print | Product List | Glossary On
Versions: 1 2 3 4 5 6 7 8 9 10 11 12 13 14 15 16 17 18 19 20 21 22 23 24 25 26 27 28 29 30 31 32 33 34 35 36 37 38 39 40 41 42 43 44 45 46 47 48 49 50
000
ASUS43 KFSD 092010
RWRSD

WEATHER ROUNDUP FOR SOUTH DAKOTA
NATIONAL WEATHER SERVICE SIOUX FALLS SD
200 PM CST FRI DEC 09 2016

NOTE: "FAIR" INDICATES FEW OR NO CLOUDS BELOW 12,000 FEET WITH NO
SIGNIFICANT WEATHER AND/OR OBSTRUCTIONS TO VISIBILITY.


SDZ001>005-009-010-012>017-092100-
NORTHWEST AND NORTH CENTRAL SOUTH DAKOTA

CITY           SKY/WX    TMP DP  RH WIND       PRES   REMARKS
BUFFALO          N/A      4  -3  73 E3        30.29S
FAITH            N/A      2  -4  76 N8        30.42S WCI -12
MOBRIDGE       CLOUDY     2  -5  72 N10       30.48F HAZE    WCI -14
$$

SDZ012>016-024>037-041>051-057-063-072>074-092100-
SOUTHWEST AND SOUTH CENTRAL SOUTH DAKOTA

CITY           SKY/WX    TMP DP  RH WIND       PRES   REMARKS
RAPID CTY ARPT LGT SNOW   2  -3  80 N10       30.34S WCI -14
PIERRE         LGT SNOW   6   0  76 NE8       30.46F WCI  -7
CUSTER         CLOUDY    14   5  67 SW8       30.06S WCI   3
ELLSWORTH AFB  FLURRIES   2  -3  79 N7        30.32F WCI -11
PHILIP         LGT SNOW   6   1  80 NE10      30.43S WCI  -9
PINE RIDGE     CLOUDY     7   2  80 NW7       30.29S WCI  -5
SPEARFISH      FAIR      -2  -6  84 NE3       30.26F
WINNER         LGT SNOW  12   6  77 NE12      30.40F WCI  -2
$$

SDZ004>011-016>023-039-040-092100-
NORTHEAST SOUTH DAKOTA

CITY           SKY/WX    TMP DP  RH WIND       PRES   REMARKS
ABERDEEN       CLOUDY     8  -4  58 N8        30.54F WCI  -4
WATERTOWN      CLOUDY     5  -2  72 N9        30.47F WCI  -9
BROOKINGS      CLOUDY     8   2  76 NW7       30.47F WCI  -3
SISSETON         N/A      7  -1  70 NW12      30.53F WCI  -8
$$

SDZ017-020-022-023-036>040-048>070-092100-
SOUTHEAST SOUTH DAKOTA

CITY           SKY/WX    TMP DP  RH WIND       PRES   REMARKS
SIOUX FALLS    CLOUDY    14   5  67 CALM      30.49F
HURON          LGT SNOW   7   0  73 NE9       30.52F WCI  -7
CHAMBERLAIN    LGT SNOW  12   7  78 E9        30.45F WCI   0
MITCHELL       LGT SNOW  11   4  73 N9        30.52F WCI  -2
YANKTON        CLOUDY    12   3  67 CALM      30.50F
$$

ABBREVIATIONS USED IN REMARKS
   TC - TEMPERATURE IN CELSIUS
  WCI - WIND CHILL INDEX
   HX - HEAT INDEX
  VSB - VISIBILITY





USA.gov is the U.S. government's official web portal to all federal, state and local government web resources and services.